Humidity-temperature Sensor

Selected Measurement Type: Air Temperature

 
Air Temperature [°C]     6 entries per hour
Showing data from 10/1/2020 (23:00:00 Z) to 9/30/2020 (00:01:00 Z)
Previous Next [ Day | 3-Days | 7-Days ]
First Last
Prev [ Day | 3-Days | 7-Days ] Next
First Last

Start Time:     :
End Time:     :     
Time (in GMT) :00 :50 :40 :30 :20 :10
Previous Next [ Day | 3-Days | 7-Days ]
First Last
Prev [ Day | 3-Days | 7-Days ] Next
First Last


123 => good data
MM => data is determined as missing
-- => data not received/configured
Back to Top Back to Top
10/1/2020 23:00 to 22:10 20.74 20.82 20.73 20.68 20.74 20.80
10/1/2020 22:00 to 21:10 20.74 20.75 20.57 20.61 20.71 20.75
10/1/2020 21:00 to 20:10 20.85 20.74 20.72 20.56 20.27 20.83
10/1/2020 20:00 to 19:10 20.84 20.81 20.72 20.64 20.77 20.86
10/1/2020 19:00 to 18:10 20.84 20.80 20.63 20.33 20.29 20.77
10/1/2020 18:00 to 17:10 20.58 20.73 20.85 20.52 20.58 20.72
10/1/2020 17:00 to 16:10 20.66 20.38 20.04 19.73 19.90 20.49
10/1/2020 16:00 to 15:10 20.80 20.80 20.78 20.66 20.84 20.77
10/1/2020 15:00 to 14:10 20.69 20.86 20.37 20.26 20.58 20.91
10/1/2020 14:00 to 13:10 20.81 20.58 20.67 20.69 20.67 20.44
10/1/2020 13:00 to 12:10 20.38 20.23 20.28 20.72 20.53 20.59
10/1/2020 12:00 to 11:10 20.62 20.62 20.67 20.66 20.51 20.51
10/1/2020 11:00 to 10:10 20.41 20.17 20.26 20.58 20.57 20.50
10/1/2020 10:00 to 9:10 20.79 20.83 20.81 20.81 20.82 20.79
10/1/2020 09:00 to 8:10 20.91 20.90 20.87 20.69 20.86 20.89
10/1/2020 08:00 to 7:10 20.88 20.96 20.97 20.88 20.90 20.86
10/1/2020 07:00 to 6:10 21.00 20.93 20.94 21.00 21.01 21.11
10/1/2020 06:00 to 5:10 21.01 21.08 21.08 21.14 21.09 21.14
10/1/2020 05:00 to 4:10 21.08 21.17 21.16 21.24 21.22 21.18
10/1/2020 04:00 to 3:10 21.25 21.20 21.23 21.33 21.28 21.21
10/1/2020 03:00 to 2:10 21.25 21.24 21.15 21.28 21.25 21.29
10/1/2020 02:00 to 1:10 21.28 21.27 21.28 21.23 21.32 21.14
10/1/2020 01:00 to 0:10 21.28 21.25 21.21 21.25 21.29 21.15
10/1/2020 00:00 to 23:10 21.19 21.24 21.23 21.19 21.20 21.35
9/30/2020 23:00 to 22:10 21.17 21.33 21.24 21.19 21.30 21.27
9/30/2020 22:00 to 21:10 21.22 21.30 21.26 21.36 21.18 21.39
9/30/2020 21:00 to 20:10 21.23 21.25 21.20 21.24 21.19 21.16
9/30/2020 20:00 to 19:10 21.23 21.11 21.08 21.20 21.13 21.21
9/30/2020 19:00 to 18:10 21.40 21.14 21.16 21.34 21.26 21.09
9/30/2020 18:00 to 17:10 21.19 21.17 21.13 21.16 21.18 21.11
9/30/2020 17:00 to 16:10 21.05 21.07 21.06 21.10 21.16 21.06
9/30/2020 16:00 to 15:10 21.03 21.10 21.13 21.16 21.17 21.12
9/30/2020 15:00 to 14:10 21.14 21.02 21.17 21.06 21.06 21.04
9/30/2020 14:00 to 13:10 21.07 21.03 21.05 20.97 21.04 20.93
9/30/2020 13:00 to 12:10 21.00 20.97 20.89 20.89 20.90 20.87
9/30/2020 12:00 to 11:10 20.92 21.07 21.10 20.97 20.97 20.99
9/30/2020 11:00 to 10:10 21.02 21.03 20.94 20.87 20.83 20.94
9/30/2020 10:00 to 9:10 21.07 20.97 20.96 21.06 20.99 20.94
9/30/2020 09:00 to 8:10 20.89 20.92 20.98 21.07 20.96 21.00
9/30/2020 08:00 to 7:10 21.06 20.95 21.05 21.01 21.08 21.03
9/30/2020 07:00 to 6:10 21.07 21.01 21.04 20.94 20.93 20.83
9/30/2020 06:00 to 5:10 20.90 20.82 20.76 20.88 20.89 20.99
9/30/2020 05:00 to 4:10 20.94 20.89 20.88 20.85 20.96 20.83
9/30/2020 04:00 to 3:10 20.86 20.69 20.87 20.84 20.88 20.84
9/30/2020 03:00 to 2:10 20.90 20.84 20.78 20.85 20.91 20.84
9/30/2020 02:00 to 1:10 20.83 20.81 20.79 20.80 20.75 20.90
9/30/2020 01:00 to 0:10 20.85 20.75 20.69 20.76 20.64 20.58